Port Aransas, TX

7:41 AM CDT on June 24, 2017 (GMT -0500)
Port Aransas

Weather History for KRAS - September, 2013

Change the Weather History Date:

Sunday, September 22, 2013

  Actual Average (KNGP) Record (KNGP)
Temperature  
Mean Temperature 78 °F -  
Max Temperature 84 °F 85 °F 96 °F (2005)
Min Temperature 72 °F 70 °F 64 °F (1999)
Cooling Degree Days 12    
Growing Degree Days 28 (Base 50)    
Moisture  
Dew Point 65 °F    
Average Humidity 67    
Maximum Humidity 83    
Minimum Humidity 42    
Precipitation  
Precipitation 0.00 in - - ()
Sea Level Pressure  
Sea Level Pressure 29.78 in    
Wind  
Wind Speed 12 mph (NNE)    
Max Wind Speed 21 mph    
Max Gust Speed 25 mph    
Visibility 10 miles    
Events      
Averages and records for this station are not official NWS values.
T = Trace of Precipitation, MM = Missing Value Source: NWS Daily Summary

Daily Weather History Graph

Daily Weather History Graph

Search for Another Location

Airport or City:

Trip Planner

Search our weather history database for the weather conditions in past years. The results will help you decide how hot, cold, wet, or windy it might be!

Date:

Astronomy

Sep. 22, 2013 Rise Set
Actual Time 7:16 AM CDT 7:24 PM CDT
Civil Twilight 6:53 AM CDT 7:47 PM CDT
Nautical Twilight 6:26 AM CDT 8:15 PM CDT
Astronomical Twilight 5:58 AM CDT 8:42 PM CDT
Moon 9:36 PM CDT (9/22) 10:18 AM CDT (9/22)
Length of Visible Light 12h 54m
Length of Day
12h 07m
Waning Gibbous, 88% of the Moon is Illuminated
Sep 22
Waning Gibbous
Sep 26
Last Quarter
Oct 4
New
Oct 11
First Quarter
Oct 18
Full

Hourly Weather History & Observations

Time (CDT) Temp. Heat Index Dew Point Humidity Pressure Visibility Wind Dir Wind Speed Gust Speed Precip Events Conditions
12:15 AM 76.6 °F - 67.5 °F 73% 29.80 in 10.0 mi North 10.4 mph - N/A   Overcast
12:35 AM 76.5 °F - 68.2 °F 75% 29.80 in 10.0 mi NNE 15.0 mph - N/A   Overcast
12:55 AM 76.3 °F - 68.9 °F 78% 29.80 in 10.0 mi NNE 12.7 mph - N/A   Overcast
1:15 AM 76.1 °F - 69.1 °F 79% 29.80 in 10.0 mi NNE 10.4 mph - N/A   Overcast
1:35 AM 76.1 °F - 69.4 °F 80% 29.79 in 10.0 mi NNE 10.4 mph - N/A   Overcast
1:55 AM 76.3 °F - 68.9 °F 78% 29.79 in 10.0 mi NNE 10.4 mph - N/A   Overcast
2:15 AM 76.3 °F - 68.9 °F 78% 29.79 in 10.0 mi North 9.2 mph - N/A   Overcast
2:35 AM 76.1 °F - 69.3 °F 79% 29.78 in 10.0 mi North 8.1 mph - N/A   Overcast
2:55 AM 75.6 °F - 68.9 °F 80% 29.78 in 10.0 mi North 10.4 mph - N/A   Overcast
3:15 AM 75.0 °F - 68.7 °F 81% 29.77 in 10.0 mi North 9.2 mph - N/A   Scattered Clouds
3:35 AM 74.3 °F - 68.4 °F 82% 29.76 in 10.0 mi North 9.2 mph - N/A   Clear
3:55 AM 73.9 °F - 68.0 °F 82% 29.76 in 10.0 mi North 11.5 mph - N/A   Clear
4:15 AM 73.8 °F - 68.0 °F 82% 29.76 in 10.0 mi North 10.4 mph - N/A   Clear
4:35 AM 73.6 °F - 67.5 °F 81% 29.76 in 10.0 mi North 9.2 mph - N/A   Clear
4:55 AM 73.4 °F - 67.5 °F 82% 29.76 in 10.0 mi North 10.4 mph - N/A   Clear
5:15 AM 73.2 °F - 67.3 °F 82% 29.76 in 10.0 mi North 12.7 mph - N/A   Clear
5:35 AM 73.2 °F - 67.3 °F 82% 29.76 in 10.0 mi North 12.7 mph 17.3 mph N/A   Clear
5:55 AM 73.2 °F - 67.3 °F 82% 29.77 in 10.0 mi North 9.2 mph - N/A   Clear
6:15 AM 73.0 °F - 67.1 °F 82% 29.77 in 10.0 mi North 12.7 mph - N/A   Clear
6:35 AM 72.9 °F - 66.9 °F 82% 29.77 in 10.0 mi North 13.8 mph - N/A   Clear
6:55 AM 72.7 °F - 67.1 °F 83% 29.78 in 10.0 mi North 12.7 mph 18.4 mph N/A   Clear
7:15 AM 72.5 °F - 66.7 °F 82% 29.78 in 10.0 mi North 12.7 mph - N/A   Clear
7:35 AM 72.5 °F - 66.6 °F 82% 29.78 in 10.0 mi North 11.5 mph - N/A   Clear
7:55 AM 72.7 °F - 66.6 °F 81% 29.79 in 10.0 mi North 15.0 mph - N/A   Clear
8:15 AM 73.0 °F - 66.4 °F 80% 29.79 in 10.0 mi North 13.8 mph - N/A   Clear
8:35 AM 73.8 °F - 66.0 °F 77% 29.80 in 10.0 mi NNE 17.3 mph - N/A   Clear
8:55 AM 73.9 °F - 65.8 °F 76% 29.80 in 10.0 mi North 15.0 mph - N/A   Clear
9:15 AM 74.3 °F - 66.2 °F 76% 29.80 in 10.0 mi North 13.8 mph 20.7 mph N/A   Clear
9:35 AM 74.8 °F - 66.4 °F 75% 29.81 in 10.0 mi NNE 12.7 mph - N/A   Clear
9:55 AM 75.4 °F - 65.8 °F 72% 29.82 in 10.0 mi NNE 12.7 mph 18.4 mph N/A   Clear
10:15 AM 76.1 °F - 64.8 °F 68% 29.82 in 10.0 mi North 13.8 mph 20.7 mph N/A   Clear
10:35 AM 77.0 °F - 64.8 °F 66% 29.82 in 10.0 mi NNE 12.7 mph - N/A   Clear
10:55 AM 77.5 °F - 64.0 °F 63% 29.82 in 10.0 mi NNE 13.8 mph 19.6 mph N/A   Clear
11:15 AM 78.6 °F - 64.2 °F 61% 29.83 in 10.0 mi North 16.1 mph - N/A   Clear
11:35 AM 79.0 °F - 63.7 °F 59% 29.83 in 10.0 mi North 15.0 mph 20.7 mph N/A   Clear
11:55 AM 79.7 °F - 63.3 °F 57% 29.82 in 10.0 mi North 15.0 mph 19.6 mph N/A   Clear
12:15 PM 80.2 °F 81.6 °F 63.3 °F 56% 29.82 in 10.0 mi North 13.8 mph - N/A   Clear
12:35 PM 80.4 °F 81.5 °F 62.1 °F 53% 29.82 in 10.0 mi North 15.0 mph 20.7 mph N/A   Clear
12:55 PM 81.7 °F 82.2 °F 60.3 °F 48% 29.81 in 10.0 mi NNE 16.1 mph 25.3 mph N/A   Clear
1:15 PM 81.3 °F 81.6 °F 58.6 °F 46% 29.81 in 10.0 mi NNE 20.7 mph 24.2 mph N/A   Clear
1:35 PM 82.0 °F 82.1 °F 58.6 °F 45% 29.80 in 10.0 mi NNE 16.1 mph 23.0 mph N/A   Clear
1:55 PM 82.8 °F 82.8 °F 59.5 °F 45% 29.79 in 10.0 mi NNE 17.3 mph 20.7 mph N/A   Clear
2:15 PM 82.9 °F 83.2 °F 59.9 °F 46% 29.78 in 10.0 mi North 16.1 mph 24.2 mph N/A   Clear
2:35 PM 83.1 °F 83.2 °F 59.9 °F 45% 29.77 in 10.0 mi NNE 16.1 mph 20.7 mph N/A   Clear
2:55 PM 83.1 °F 82.7 °F 58.1 °F 42% 29.77 in 10.0 mi NNE 13.8 mph 19.6 mph N/A   Clear
3:15 PM 83.5 °F 83.1 °F 58.3 °F 42% 29.76 in 10.0 mi North 13.8 mph 18.4 mph N/A   Clear
3:35 PM 83.5 °F 83.2 °F 58.8 °F 43% 29.75 in 10.0 mi NNE 15.0 mph - N/A   Clear
3:55 PM 83.3 °F 83.5 °F 60.3 °F 46% 29.75 in 10.0 mi NE 12.7 mph 19.6 mph N/A   Clear
4:15 PM 83.8 °F 84.3 °F 61.3 °F 47% 29.74 in 10.0 mi NNE 13.8 mph 18.4 mph N/A   Clear
4:35 PM 82.9 °F 83.8 °F 62.4 °F 50% 29.74 in 10.0 mi NNE 12.7 mph - N/A   Clear
4:55 PM 82.8 °F 84.3 °F 64.6 °F 54% 29.74 in 10.0 mi NE 11.5 mph 17.3 mph N/A   Clear
5:15 PM 82.8 °F 84.5 °F 64.9 °F 55% 29.73 in 10.0 mi NE 12.7 mph 18.4 mph N/A   Clear
5:35 PM 82.9 °F 84.8 °F 65.5 °F 55% 29.73 in 10.0 mi NE 10.4 mph 17.3 mph N/A   Clear
5:55 PM 82.4 °F 84.2 °F 65.5 °F 56% 29.73 in 10.0 mi NNE 9.2 mph - N/A   Clear
6:15 PM 82.2 °F 83.8 °F 64.8 °F 55% 29.74 in 10.0 mi NE 12.7 mph - N/A   Clear
6:35 PM 81.7 °F 83.3 °F 64.8 °F 56% 29.74 in 10.0 mi NNE 11.5 mph - N/A   Clear
6:55 PM 81.0 °F 82.7 °F 64.9 °F 58% 29.74 in 10.0 mi NE 11.5 mph - N/A   Clear
7:15 PM 80.2 °F 82.1 °F 65.3 °F 60% 29.74 in 10.0 mi NE 10.4 mph - N/A   Clear
7:35 PM 79.5 °F - 65.3 °F 62% 29.74 in 10.0 mi NNE 9.2 mph - N/A   Clear
7:55 PM 79.3 °F - 64.2 °F 60% 29.75 in 10.0 mi NE 9.2 mph - N/A   Clear
8:15 PM 79.0 °F - 64.4 °F 61% 29.75 in 10.0 mi NE 8.1 mph - N/A   Clear
8:35 PM 78.8 °F - 63.9 °F 60% 29.76 in 10.0 mi NE 6.9 mph - N/A   Clear
8:55 PM 77.9 °F - 64.0 °F 62% 29.76 in 10.0 mi NNE 6.9 mph - N/A   Clear
9:15 PM 77.2 °F - 64.2 °F 64% 29.76 in 10.0 mi NE 5.8 mph - N/A   Clear
9:35 PM 76.3 °F - 65.1 °F 68% 29.76 in 10.0 mi NNE 4.6 mph - N/A   Clear
9:55 PM 76.5 °F - 67.3 °F 73% 29.76 in 10.0 mi NNE 4.6 mph - N/A   Clear
10:15 PM 76.3 °F - 68.0 °F 75% 29.76 in 10.0 mi NNE 4.6 mph - N/A   Clear
10:35 PM 76.1 °F - 68.7 °F 78% 29.77 in 10.0 mi NNE 5.8 mph - N/A   Scattered Clouds
10:55 PM 78.3 °F - 69.8 °F 75% 29.77 in 10.0 mi ENE 9.2 mph - N/A   Overcast
11:15 PM 78.3 °F - 69.8 °F 75% 29.77 in 10.0 mi ENE 9.2 mph - N/A   Mostly Cloudy
11:35 PM 77.9 °F - 69.1 °F 74% 29.77 in 10.0 mi ENE 9.2 mph 17.3 mph N/A   Mostly Cloudy
11:55 PM 77.9 °F - 68.0 °F 71% 29.77 in 10.0 mi NE 8.1 mph - N/A   Scattered Clouds